COSMOS 2024 (ETALON 2)

Last updated on Thu Nov 21 2024 00:03:28 GMT+0000 (Coordinated Universal Time)

1 20026U 89039C 24325.58258481 -.00000050 00000+0 00000+0 0 9990 2 20026 65.2640 330.2256 0019841 216.6462 286.3327 2.13204439276279
UTC large
Height (km)
Speed (km/s)
/
Latitude / Longitude
Inclination (degrees)
Orbital Period (minutes)
Azimuth
Elevation
Range (km)
Doppler Factor

Next 0 passes for location: London (51.5072 / 0.1276)

Sorry there are no passes over London.